This is the latest recevied weather packets stored in our database for station/object VU3ZAG-13. If no packets are shown the sender has not sent any weather packets the latest 1 day(s).
| Time | Temp. | Humidity | Pressure | Rain* | Wind** | Luminosity | Snow |
|---|---|---|---|---|---|---|---|
| 1777972029 | 32.78° C | 30% | - | 0 mm | 2.24 m/s, 288° | - | - |
| 1777971721 | 32.78° C | 28% | - | 0 mm | 1.34 m/s, 270° | - | - |
| 1777971412 | 32.22° C | 27% | - | 0 mm | 3.58 m/s, 306° | - | - |
| 1777971103 | 32.22° C | 31% | - | 0 mm | 2.24 m/s, 323° | - | - |
| 1777970794 | 32.22° C | 31% | - | 0 mm | 4.02 m/s, 326° | - | - |
| 1777970485 | 32.22° C | 28% | - | 0 mm | 2.24 m/s, 302° | - | - |
| 1777970175 | 32.22° C | 27% | - | 0 mm | 1.34 m/s, 318° | - | - |
| 1777969867 | 32.22° C | 27% | - | 0 mm | 1.79 m/s, 347° | - | - |
| 1777969558 | 32.22° C | 29% | - | 0 mm | 3.13 m/s, 308° | - | - |
| 1777969249 | 32.22° C | 29% | - | 0 mm | 3.13 m/s, 349° | - | - |
| 1777968941 | 32.22° C | 30% | - | 0 mm | 2.24 m/s, 317° | - | - |
| 1777968631 | 32.78° C | 31% | - | 0 mm | 1.34 m/s, 333° | - | - |
| 1777968322 | 32.22° C | 31% | - | 0 mm | 0.89 m/s, 324° | - | - |
| 1777968014 | 32.22° C | 32% | - | 0 mm | 1.34 m/s, 303° | - | - |
| 1777967705 | 32.22° C | 31% | - | 0 mm | 2.68 m/s, 280° | - | - |
| 1777967396 | 32.22° C | 30% | - | 0 mm | 1.79 m/s, 266° | - | - |
| 1777967087 | 32.22° C | 31% | - | 0 mm | 1.34 m/s, 320° | - | - |
| 1777966778 | 32.22° C | 32% | - | 0 mm | 2.24 m/s, 359° | - | - |
| 1777966469 | 32.22° C | 31% | - | 0 mm | 1.79 m/s, 293° | - | - |
| 1777966161 | 32.22° C | 32% | - | 0 mm | 2.24 m/s, 275° | - | - |
| 1777965852 | 32.22° C | 32% | - | 0 mm | 2.68 m/s, 338° | - | - |
| 1777965544 | 32.22° C | 33% | - | 0 mm | 0.89 m/s, 359° | - | - |
| 1777965235 | 32.22° C | 32% | - | 0 mm | 1.79 m/s, 274° | - | - |
| 1777964926 | 32.22° C | 35% | - | 0 mm | 1.79 m/s, 336° | - | - |
| 1777964617 | 32.22° C | 32% | - | 0 mm | 0.89 m/s, 300° | - | - |
* Rain since midnight (hover to see other rain measurements)
** Current wind speed in m/s (hover to see current wind gust speed)